Flag for Germany Weather past 2 weeks in Hückelhoven, North Rhine-Westphalia, Germany

Now
68 °F

Thundershowers. Fog.


Feels Like: 68 °F
Forecast: 59 / 74 °F
Wind: 8 mph from West

Location: Geilenkirchen Airport

Current Time: Jul 29, 2014 at 9:20:22 PM

Latest Report: Jul 29, 2014 at 8:50 PM


Visibility: 3 mi

Pressure: 29.83 "Hg

Humidity: 94%

Dew point: 66 °F

Location of HückelhovenLocation

Historic Weather in Hückelhoven — Graph

°F

Hückelhoven temperature yesterday

Maximum temperature yesterday: 75 °F (at 10:50 AM)
Minimum temperature yesterday: 64 °F (at 6:50 AM)
Average temperature yesterday: 70 °F

Past Weeks' High & Low Weather Summary

 TemperatureHumidityPressure
High84 °F (Jul 17, 3:50 PM)100% (Jul 17, 5:50 AM)30.18 "Hg (Jul 17, 5:50 AM)
Low57 °F (Jul 15, 6:50 AM)42% (Jul 16, 3:50 PM)29.83 "Hg (Jul 29, 2:50 PM)
Average70 °F80%30.01 "Hg
* Reported Jul 15 6:50 AM — Jul 29 7:50 PM, Hückelhoven, Weather by CustomWeather, © 2014

Note: Actual official high and low records may vary slightly from our data, if they occured in-between our weather recording intervals... More about our weather records

Advertising

Hückelhoven weather history for previous 24 hours

 ConditionsComfort  
Time TempWeatherWind HumidityBarometerVisibility
7:50 PM
Jul 29
68 °FLight rain. Fog.7 mph100%29.83 "Hg2 mi
6:50 PM70 °FMostly cloudy.3 mph94%29.83 "Hg4 mi
5:50 PM68 °FBroken clouds.5 mph94%29.83 "Hg4 mi
4:50 PM66 °FThunderstorms. Partly sunny.3 mph100%29.83 "HgN/A
3:50 PM72 °FStrong thunderstorms. Partly sunny.17 mph88%29.86 "Hg2 mi
2:50 PM79 °FScattered clouds.7 mph79%29.83 "Hg4 mi
1:50 PM75 °FFog.7 mph83%29.86 "Hg3 mi
12:50 PM72 °FFog.3 mph94%29.86 "Hg2 mi
11:50 AM68 °FFog.5 mph94%29.86 "Hg1 mi
10:50 AM66 °FFog.7 mph100%29.86 "Hg0 mi
9:50 AM64 °FFog.6 mph100%29.86 "Hg1 mi
8:50 AM64 °FFog.3 mph100%29.86 "Hg1 mi
7:50 AM64 °FSprinkles. Fog.6 mph94%29.86 "Hg1 mi
6:50 AM63 °FSprinkles. Fog.2 mph100%29.86 "Hg1 mi
5:50 AM63 °FFog.3 mph100%29.86 "Hg2 mi
4:50 AM64 °FFog.3 mph100%29.86 "Hg3 mi
3:50 AM66 °FPassing clouds.5 mph94%29.86 "Hg4 mi
2:50 AM66 °FPartly cloudy.6 mph94%29.89 "HgN/A
1:50 AM66 °FPassing clouds.7 mph88%29.89 "HgN/A
12:50 AM66 °FPartly cloudy.8 mph94%29.89 "HgN/A
11:50 PM
Jul 28
68 °FPassing clouds.6 mph88%29.89 "HgN/A
10:50 PM68 °FPassing clouds.1 mph88%29.89 "HgN/A
9:50 PM68 °FBroken clouds.3 mph88%29.89 "HgN/A
Weather by CustomWeather, © 2014

See weather overviewHow to use our weather pages